Regional Weather Roundup
Issued by NWS

Home | Current Version | Previous Version | Text Only | Print | Product List | Glossary Off
Versions: 1 2 3 4 5 6 7 8 9 10 11 12 13 14 15 16 17 18 19 20 21 22 23 24 25 26 27 28 29 30 31 32 33 34 35 36 37 38 39 40 41 42 43 44 45 46 47 48 49 50

000
ASUS43 KFSD 020010
RWRSD

WEATHER ROUNDUP FOR SOUTH DAKOTA
NATIONAL WEATHER SERVICE SIOUX FALLS SD
700 PM CDT TUE SEP 01 2015

NOTE: "FAIR" INDICATES FEW OR NO CLOUDS BELOW 12,000 FEET WITH NO
SIGNIFICANT WEATHER AND/OR OBSTRUCTIONS TO VISIBILITY.


SDZ001>005-009-010-012>017-020100-
NORTHWEST AND NORTH CENTRAL SOUTH DAKOTA

CITY           SKY/WX    TMP DP  RH WIND       PRES   REMARKS
BUFFALO          N/A     86  55  34 E6        29.76S
FAITH            N/A     87  54  32 W6        29.80S
MOBRIDGE       SUNNY     87  66  49 SE10      29.74S
$$

SDZ012>016-024>037-041>051-057-063-072>074-020100-
SOUTHWEST AND SOUTH CENTRAL SOUTH DAKOTA

CITY           SKY/WX    TMP DP  RH WIND       PRES   REMARKS
RAPID CTY ARPT SUNNY     83  59  44 NE7       29.84S
PIERRE         SUNNY     86  63  45 SE24G31   29.75S
CUSTER         SUNNY     82  32  16 W8        30.01S
ELLSWORTH AFB  SUNNY     86  51  29 NE7       29.84S
PHILIP         SUNNY     89  62  40 N10       29.76R
PINE RIDGE     SUNNY     92  39  15 NW6       29.85S
WINNER         FAIR      86  63  45 SE14      29.82S
$$

SDZ004>011-016>023-039-040-020100-
NORTHEAST SOUTH DAKOTA

CITY           SKY/WX    TMP DP  RH WIND       PRES   REMARKS
ABERDEEN       SUNNY     82  69  64 SE7       29.81S
WATERTOWN      MOSUNNY   80  61  52 SE9       29.85S
BROOKINGS      PTSUNNY   75  70  83 SE14G23   29.91R
SISSETON         N/A     80  72  76 SE10      29.83S
$$

SDZ017-020-022-023-036>040-048>070-020100-
SOUTHEAST SOUTH DAKOTA

CITY           SKY/WX    TMP DP  RH WIND       PRES   REMARKS
SIOUX FALLS    CLOUDY    75  71  87 NE6       29.88R
HURON          SUNNY     81  69  67 S15G24    29.82R
CHAMBERLAIN    SUNNY     79  68  69 SE9       29.82F
MITCHELL       SUNNY     79  71  76 SE9       29.83F
YANKTON        PTSUNNY   82  72  69 E6        29.82F
$$

ABBREVIATIONS USED IN REMARKS
   TC - TEMPERATURE IN CELSIUS
  WCI - WIND CHILL INDEX
   HX - HEAT INDEX
  VSB - VISIBILITY




USA.gov is the U.S. government's official web portal to all federal, state and local government web resources and services.